When you browse on this site, cookies collect data to enhance your experience and personalize the content and advertising you see.
Visit our Privacy Policy to learn more. By continuing to use the site, you agree to this use of cookies and data.
  • In Slovakia
  • List of Countries
  • For 7 days
  • Water Temperature
  • Satellite Maps
  • Weather Map
  • Weather Widgets
  • user-avatar
    Login

    Hourly Weather Lubango

    Today, 19 November, Monday

    Time Temperature Precipitation Wind Pressure Humidity
    00:00 +18°C° 0 mm 1 mps 609 mmHg 63%
    01:00 +16°C° 0 mm 0 mps 609 mmHg 65%
    02:00 +18°C° 0.1 mm 1 mps 609 mmHg 66%
    03:00 +18°C° 0.1 mm 1 mps 609 mmHg 66%
    04:00 +16°C° 0.1 mm 1 mps 608 mmHg 67%
    05:00 +18°C° 0 mm 1 mps 609 mmHg 62%
    06:00 +18°C° 0 mm 0 mps 610 mmHg 58%
    07:00 +19°C° 0 mm 0 mps 610 mmHg 53%
    08:00 +24°C° 0 mm 1 mps 611 mmHg 44%
    09:00 +27°C° 0 mm 1 mps 612 mmHg 35%
    10:00 +30°C° 0 mm 1 mps 613 mmHg 26%
    11:00 +30°C° 0 mm 1 mps 613 mmHg 24%
    12:00 +31°C° 0 mm 2 mps 613 mmHg 22%
    13:00 +32°C° 0 mm 2 mps 612 mmHg 21%
    14:00 +30°C° 0 mm 3 mps 611 mmHg 24%
    15:00 +29°C° 0 mm 3 mps 611 mmHg 28%
    16:00 +27°C° 0 mm 3 mps 610 mmHg 32%
    17:00 +25°C° 0 mm 3 mps 610 mmHg 38%
    18:00 +24°C° 0 mm 3 mps 609 mmHg 43%
    19:00 +21°C° 0 mm 3 mps 609 mmHg 49%
    20:00 +20°C° 0 mm 2 mps 609 mmHg 53%
    21:00 +19°C° 0 mm 2 mps 610 mmHg 58%
    22:00 +19°C° 0 mm 1 mps 610 mmHg 63%
    23:00 +18°C° 0 mm 1 mps 610 mmHg 64%

    Tomorrow, 20 November, Tuesday

    Time Temperature Precipitation Wind Pressure Humidity
    00:00 +18°C° 0 mm 1 mps 609 mmHg 65%
    01:00 +18°C° 0 mm 1 mps 609 mmHg 67%
    02:00 +16°C° 0 mm 1 mps 609 mmHg 68%
    03:00 +16°C° 0 mm 1 mps 608 mmHg 69%
    04:00 +15°C° 0 mm 1 mps 608 mmHg 70%
    05:00 +16°C° 0 mm 0 mps 609 mmHg 63%
    06:00 +17°C° 0 mm 0 mps 610 mmHg 56%
    07:00 +19°C° 0 mm 0 mps 611 mmHg 49%
    08:00 +23°C° 0 mm 1 mps 611 mmHg 42%
    09:00 +25°C° 0 mm 1 mps 612 mmHg 35%
    10:00 +28°C° 0 mm 1 mps 613 mmHg 28%
    11:00 +29°C° 0 mm 2 mps 613 mmHg 27%
    12:00 +30°C° 0 mm 2 mps 612 mmHg 25%
    13:00 +31°C° 0 mm 2 mps 612 mmHg 24%
    14:00 +30°C° 0 mm 3 mps 611 mmHg 27%
    15:00 +28°C° 0 mm 3 mps 611 mmHg 29%
    16:00 +27°C° 0 mm 4 mps 610 mmHg 32%
    17:00 +25°C° 0.1 mm 3 mps 610 mmHg 38%
    18:00 +22°C° 0.1 mm 3 mps 610 mmHg 44%
    19:00 +21°C° 0.1 mm 2 mps 609 mmHg 49%
    20:00 +20°C° 0 mm 2 mps 610 mmHg 54%
    21:00 +19°C° 0 mm 2 mps 610 mmHg 58%
    22:00 +18°C° 0 mm 2 mps 610 mmHg 62%
    23:00 +17°C° 0 mm 2 mps 610 mmHg 64%

    Day after tomorrow, 21 November, Wednesday

    Time Temperature Precipitation Wind Pressure Humidity
    00:00 +18°C° 0 mm 1 mps 610 mmHg 66%
    01:00 +18°C° 0 mm 1 mps 609 mmHg 68%
    02:00 +16°C° 0 mm 1 mps 609 mmHg 67%
    03:00 +16°C° 0 mm 1 mps 608 mmHg 67%
    04:00 +16°C° 0 mm 1 mps 608 mmHg 66%
    05:00 +18°C° 0 mm 1 mps 609 mmHg 61%
    06:00 +19°C° 0 mm 1 mps 610 mmHg 55%
    07:00 +20°C° 0 mm 1 mps 610 mmHg 50%
    08:00 +23°C° 0 mm 1 mps 611 mmHg 41%
    09:00 +25°C° 0 mm 1 mps 612 mmHg 33%
    10:00 +28°C° 0 mm 1 mps 613 mmHg 25%
    11:00 +29°C° 0 mm 2 mps 613 mmHg 24%
    12:00 +30°C° 0 mm 2 mps 613 mmHg 22%
    13:00 +31°C° 0 mm 3 mps 612 mmHg 21%
    14:00 +30°C° 0 mm 3 mps 612 mmHg 24%
    15:00 +29°C° 0 mm 4 mps 611 mmHg 28%
    16:00 +28°C° 0 mm 5 mps 610 mmHg 31%
    17:00 +25°C° 0 mm 4 mps 610 mmHg 39%
    18:00 +22°C° 0 mm 3 mps 609 mmHg 47%
    19:00 +20°C° 0 mm 3 mps 609 mmHg 55%
    20:00 +19°C° 0 mm 2 mps 609 mmHg 59%
    21:00 +18°C° 0 mm 2 mps 610 mmHg 63%
    22:00 +17°C° 0 mm 2 mps 610 mmHg 67%
    23:00 +18°C° 0 mm 1 mps 609 mmHg 70%

    22 November, Thursday

    Time Temperature Precipitation Wind Pressure Humidity
    00:00 +16°C° 0 mm 1 mps 609 mmHg 72%
    01:00 +15°C° 0 mm 1 mps 608 mmHg 75%
    02:00 +15°C° 0 mm 1 mps 608 mmHg 75%
    03:00 +15°C° 0 mm 1 mps 607 mmHg 76%
    04:00 +14°C° 0 mm 1 mps 607 mmHg 76%
    05:00 +16°C° 0 mm 1 mps 608 mmHg 68%
    06:00 +18°C° 0 mm 1 mps 609 mmHg 61%
    07:00 +20°C° 0 mm 1 mps 610 mmHg 53%
    08:00 +23°C° 0 mm 1 mps 611 mmHg 44%
    09:00 +26°C° 0 mm 1 mps 612 mmHg 35%
    10:00 +28°C° 0 mm 1 mps 613 mmHg 26%
    11:00 +30°C° 0 mm 2 mps 613 mmHg 25%
    12:00 +31°C° 0 mm 2 mps 613 mmHg 23%
    13:00 +33°C° 0 mm 3 mps 612 mmHg 21%
    14:00 +31°C° 0 mm 3 mps 611 mmHg 24%
    15:00 +29°C° 0 mm 4 mps 611 mmHg 28%
    16:00 +28°C° 0 mm 4 mps 610 mmHg 31%
    17:00 +25°C° 0.1 mm 4 mps 609 mmHg 39%
    18:00 +22°C° 0.1 mm 3 mps 609 mmHg 47%
    19:00 +20°C° 0.1 mm 3 mps 609 mmHg 55%
    20:00 +19°C° 0 mm 2 mps 609 mmHg 59%
    21:00 +18°C° 0 mm 2 mps 609 mmHg 63%
    22:00 +18°C° 0 mm 1 mps 609 mmHg 67%
    23:00 +16°C° 0 mm 1 mps 609 mmHg 69%

    23 November, Friday

    Time Temperature Precipitation Wind Pressure Humidity
    00:00 +16°C° 0 mm 1 mps 608 mmHg 71%
    01:00 +15°C° 0 mm 1 mps 608 mmHg 73%
    02:00 +15°C° 0 mm 1 mps 608 mmHg 74%
    03:00 +15°C° 0 mm 1 mps 607 mmHg 74%
    04:00 +13°C° 0 mm 0 mps 607 mmHg 75%
    05:00 +16°C° 0 mm 1 mps 608 mmHg 69%
    06:00 +18°C° 0 mm 1 mps 609 mmHg 62%
    07:00 +19°C° 0 mm 1 mps 610 mmHg 56%
    08:00 +22°C° 0 mm 1 mps 611 mmHg 47%
    09:00 +25°C° 0 mm 1 mps 612 mmHg 38%
    10:00 +28°C° 0 mm 1 mps 613 mmHg 28%
    11:00 +29°C° 0 mm 2 mps 613 mmHg 26%
    12:00 +30°C° 0 mm 2 mps 613 mmHg 24%
    13:00 +33°C° 0 mm 3 mps 612 mmHg 22%
    14:00 +30°C° 0 mm 3 mps 611 mmHg 25%
    15:00 +29°C° 0 mm 4 mps 611 mmHg 27%
    16:00 +28°C° 0 mm 4 mps 610 mmHg 30%
    17:00 +26°C° 0 mm 4 mps 609 mmHg 36%
    18:00 +24°C° 0 mm 3 mps 609 mmHg 43%
    19:00 +20°C° 0 mm 3 mps 609 mmHg 49%
    20:00 +19°C° 0 mm 2 mps 609 mmHg 54%
    21:00 +18°C° 0 mm 2 mps 609 mmHg 59%
    22:00 +18°C° 0 mm 1 mps 609 mmHg 63%
    23:00 +16°C° 0 mm 1 mps 609 mmHg 66%

    24 November, Saturday

    Time Temperature Precipitation Wind Pressure Humidity
    00:00 +16°C° 0 mm 1 mps 608 mmHg 69%
    01:00 +15°C° 0 mm 1 mps 608 mmHg 72%
    02:00 +15°C° 0 mm 1 mps 607 mmHg 73%
    03:00 +14°C° 0 mm 1 mps 607 mmHg 75%
    04:00 +14°C° 0 mm 1 mps 607 mmHg 77%
    05:00 +15°C° 0 mm 1 mps 608 mmHg 69%
    06:00 +18°C° 0 mm 1 mps 609 mmHg 62%
    07:00 +19°C° 0 mm 1 mps 610 mmHg 54%
    08:00 +22°C° 0 mm 1 mps 611 mmHg 44%
    09:00 +25°C° 0 mm 1 mps 612 mmHg 33%
    10:00 +28°C° 0 mm 1 mps 613 mmHg 23%
    11:00 +29°C° 0 mm 2 mps 613 mmHg 21%
    12:00 +30°C° 0 mm 2 mps 613 mmHg 19%
    13:00 +33°C° 0 mm 3 mps 612 mmHg 17%
    14:00 +31°C° 0 mm 3 mps 612 mmHg 19%
    15:00 +30°C° 0 mm 4 mps 611 mmHg 20%
    16:00 +29°C° 0 mm 4 mps 610 mmHg 22%
    17:00 +27°C° 0 mm 4 mps 610 mmHg 28%
    18:00 +24°C° 0 mm 3 mps 609 mmHg 35%
    19:00 +20°C° 0 mm 3 mps 609 mmHg 41%
    20:00 +19°C° 0 mm 2 mps 609 mmHg 45%
    21:00 +18°C° 0 mm 2 mps 609 mmHg 50%
    22:00 +16°C° 0 mm 1 mps 609 mmHg 54%
    23:00 +16°C° 0 mm 1 mps 608 mmHg 55%
    Show more